Weather History for Bucharest Otopeni, Romania

Change the Weather History Date:

Monday, March 11, 2013

  Actual Average Record
Temperature  
Mean Temperature 53 °F -  
Max Temperature 62 °F 54 °F 68 °F (2001)
Min Temperature 44 °F 34 °F 15 °F (2005)
Degree Days  
Heating Degree Days 12    
Growing Degree Days 3 (Base 50)    
Moisture  
Dew Point 48 °F    
Average Humidity 89    
Maximum Humidity 100    
Minimum Humidity 52    
Precipitation  
Precipitation 0.00 in - - ()
Sea Level Pressure  
Sea Level Pressure 29.49 in    
Wind  
Wind Speed 5 mph ()    
Max Wind Speed 14 mph    
Max Gust Speed -    
Visibility 5.9 miles    
Events Rain    
Averages and records for this station are not official NWS values.
T = Trace of Precipitation, MM = Missing Value Source: Averaged Metar Reports

Daily Weather History Graph

Daily Weather History Graph

Search for Another Location

Airport:

Trip Planner

Search our weather history database for the weather conditions in past years. The results will help you decide how hot, cold, wet, or windy it might be!

Date:

Astronomy

Mar. 11, 2013 Rise Set
Actual Time 6:35 AM EET 6:16 PM EET
Civil Twilight 6:06 AM EET 6:45 PM EET
Nautical Twilight 5:32 AM EET 7:19 PM EET
Astronomical Twilight 4:58 AM EET 7:53 PM EET
Moon 5:58 AM EET 6:09 PM EET
Length of Visible Light 12h 39m
Length of Day
11h 41m
Waning Crescent, 0% of the Moon is Illuminated
Mar 11
Waning Crescent
Mar 11
New
Mar 19
First Quarter
Mar 27
Full
Apr 3
Last Quarter

Hourly Weather History & Observations

Time (EET) Temp. Windchill Dew Point Humidity Pressure Visibility Wind Dir Wind Speed Gust Speed Precip Events Conditions
12:00 AM 46.4 °F 45.2 °F 46.4 °F 100% 29.53 in - WSW 3.5 mph - N/A   Clear
12:30 AM 48.2 °F - 48.2 °F 100% 29.53 in - WSW 6.9 mph - N/A   Clear
1:00 AM 50.0 °F - 48.2 °F 94% 29.53 in 6.2 mi WSW 10.4 mph - N/A Rain Light Rain
1:30 AM 50.0 °F - 50.0 °F 100% 29.53 in 6.2 mi WNW 4.6 mph - N/A Rain Light Rain
2:00 AM 50.0 °F - 48.2 °F 94% 29.53 in - SW 4.6 mph - N/A   Clear
2:30 AM 50.0 °F - 48.2 °F 94% 29.53 in - SW 6.9 mph - N/A   Clear
3:00 AM 48.2 °F - 48.2 °F 100% 29.53 in - West 5.8 mph - N/A   Clear
3:30 AM 46.4 °F 45.2 °F 44.6 °F 93% 29.50 in - SW 3.5 mph - N/A   Clear
4:00 AM 44.6 °F 41.4 °F 44.6 °F 100% 29.50 in - SSW 5.8 mph - N/A   Clear
4:30 AM 46.4 °F 43.5 °F 46.4 °F 100% 29.50 in - SW 5.8 mph - N/A   Clear
5:00 AM 46.4 °F 44.3 °F 44.6 °F 93% 29.50 in - SW 4.6 mph - N/A   Clear
5:30 AM 46.4 °F 44.3 °F 44.6 °F 93% 29.50 in - SW 4.6 mph - N/A   Clear
6:00 AM 46.4 °F 44.3 °F 44.6 °F 93% 29.50 in - SW 4.6 mph - N/A   Clear
6:30 AM 46.4 °F 43.5 °F 44.6 °F 93% 29.47 in - SW 5.8 mph - N/A   Clear
7:00 AM 44.6 °F 41.4 °F 44.6 °F 100% 29.50 in - WSW 5.8 mph - N/A   Clear
7:30 AM 46.4 °F 43.5 °F 44.6 °F 93% 29.50 in 6.2 mi WSW 5.8 mph - N/A   Partly Cloudy
8:00 AM 46.4 °F 44.3 °F 46.4 °F 100% 29.50 in 6.2 mi WSW 4.6 mph - N/A   Partly Cloudy
8:30 AM 48.2 °F - 48.2 °F 100% 29.50 in 6.2 mi WSW 4.6 mph - N/A   Partly Cloudy
9:00 AM 50.0 °F - 50.0 °F 100% 29.50 in 6.2 mi SW 4.6 mph - N/A   Partly Cloudy
9:30 AM 50.0 °F - 50.0 °F 100% 29.50 in 6.2 mi WSW 5.8 mph - N/A   Partly Cloudy
10:00 AM 51.8 °F - 51.8 °F 100% 29.50 in 6.2 mi WSW 5.8 mph - N/A Rain Light Rain Showers
11:00 AM 53.6 °F - 53.6 °F 100% 29.50 in 6.2 mi West 4.6 mph - N/A Rain Light Rain
11:30 AM 53.6 °F - 53.6 °F 100% 29.50 in 6.2 mi West 4.6 mph - N/A Rain Light Rain
12:00 PM 51.8 °F - 51.8 °F 100% 29.50 in 6.2 mi WSW 4.6 mph - N/A Rain Light Rain
12:30 PM 53.6 °F - 53.6 °F 100% 29.50 in 6.2 mi WSW 6.9 mph - N/A   Partly Cloudy
1:00 PM 55.4 °F - 53.6 °F 94% 29.47 in 6.2 mi WSW 6.9 mph - N/A Rain Light Rain Showers
1:30 PM 55.4 °F - 50.0 °F 82% 29.47 in 6.2 mi WSW 10.4 mph - N/A   Partly Cloudy
2:00 PM 57.2 °F - 50.0 °F 77% 29.47 in 6.2 mi West 9.2 mph - N/A   Partly Cloudy
2:30 PM 59.0 °F - 50.0 °F 72% 29.44 in 6.2 mi WSW 8.1 mph - N/A   Partly Cloudy
3:00 PM 60.8 °F - 46.4 °F 59% 29.44 in 6.2 mi WSW 8.1 mph - N/A   Partly Cloudy
3:30 PM 60.8 °F - 46.4 °F 59% 29.44 in 6.2 mi West 9.2 mph - N/A   Scattered Clouds
4:00 PM 62.6 °F - 44.6 °F 52% 29.44 in 6.2 mi SW 10.4 mph - N/A   Scattered Clouds
4:30 PM 60.8 °F - 44.6 °F 55% 29.44 in 6.2 mi WSW 9.2 mph - N/A   Partly Cloudy
5:00 PM 60.8 °F - 44.6 °F 55% 29.44 in 6.2 mi SSW 8.1 mph - N/A   Partly Cloudy
5:30 PM 59.0 °F - 46.4 °F 63% 29.44 in - SW 8.1 mph - N/A   Clear
6:00 PM 57.2 °F - 46.4 °F 67% 29.44 in - SW 3.5 mph - N/A   Clear
6:30 PM 53.6 °F - 44.6 °F 72% 29.44 in - South 2.3 mph - N/A   Clear
7:00 PM 51.8 °F - 48.2 °F 88% 29.44 in - SSW 3.5 mph - N/A   Clear
7:30 PM 50.0 °F - 48.2 °F 94% 29.47 in - SSW 3.5 mph - N/A   Clear
8:00 PM 50.0 °F - 48.2 °F 94% 29.47 in - South 2.3 mph - N/A   Clear
8:30 PM 48.2 °F - 48.2 °F 100% 29.47 in - SSE 2.3 mph - N/A   Clear
9:00 PM 50.0 °F - 48.2 °F 94% 29.47 in - SSW 3.5 mph - N/A   Clear
9:30 PM 51.8 °F - 48.2 °F 88% 29.47 in - SSW 1.2 mph - N/A   Clear
10:00 PM 51.8 °F - 48.2 °F 88% 29.50 in 5.0 mi WSW 4.6 mph - N/A Rain Light Rain Showers
10:30 PM 50.0 °F - 50.0 °F 100% 29.50 in 3.1 mi WSW 13.8 mph - N/A Rain Rain Showers
11:00 PM 50.0 °F - 48.2 °F 94% 29.50 in 3.1 mi West 9.2 mph - N/A Rain Rain Showers
11:30 PM 48.2 °F - 48.2 °F 100% 29.50 in 5.0 mi Variable 2.3 mph - N/A Rain Light Rain Showers